Flag for Germany Weather past 2 weeks in Kulmbach, Bavaria, Germany

Now
44 °F

Overcast.


Feels Like: 44 °F
Forecast: 36 / 56 °F
Wind: 1 mph from Northwest

Location: Hof

Current Time: Oct 24, 2014 at 12:14:53 AM

Latest Report: Oct 23, 2014 at 10:00 PM


Visibility: 5 mi

Pressure: 30.26 "Hg

Humidity: 96%

Dew point: 42 °F

Location of KulmbachLocation

Historic Weather in Kulmbach — Graph

°F

Kulmbach temperature yesterday

Maximum temperature yesterday: 44 °F (at 4:00 PM)
Minimum temperature yesterday: 42 °F (at 9:00 AM)
Average temperature yesterday: 43 °F

Past Weeks' High & Low Weather Summary

 TemperatureHumidityPressure
High73 °F (Oct 9, 4:00 PM)100% (Oct 13, 8:00 AM)30.26 "Hg (Oct 13, 8:00 AM)
Low36 °F (Oct 22, 9:00 AM)48% (Oct 9, 3:00 PM)29.50 "Hg (Oct 21, 9:00 PM)
Average54 °F88%29.92 "Hg
* Reported Midnight between Oct 8 and Oct 9 — Oct 23 10:00 PM, Kulmbach, Weather by CustomWeather, © 2014

Note: Actual official high and low records may vary slightly from our data, if they occured in-between our weather recording intervals... More about our weather records

Advertising

Kulmbach weather history for previous 24 hours

 ConditionsComfort  
Time TempWeatherWind HumidityBarometerVisibility
10:00 PM
Oct 23
44 °FOvercast.1 mph96%30.26 "Hg5 mi
9:00 PM44 °FOvercast.1 mph94%30.25 "Hg7 mi
8:00 PM44 °FOvercast.1 mph92%30.24 "Hg8 mi
7:00 PM44 °FOvercast.1 mph90%30.24 "Hg10 mi
6:00 PM44 °FOvercast.3 mph92%30.23 "Hg9 mi
4:00 PM44 °FDrizzle. Low clouds.2 mph94%30.22 "Hg6 mi
3:00 PM44 °FLow clouds.3 mph93%30.22 "Hg7 mi
2:00 PM44 °FLow clouds.5 mph95%30.21 "Hg7 mi
1:00 PM43 °FLow clouds.6 mph94%30.20 "Hg6 mi
12:00 PM42 °FDrizzle. Low clouds.7 mph97%30.19 "Hg6 mi
10:00 AM42 °FFog.6 mph97%30.16 "Hg4 mi
9:00 AM42 °FLow clouds.6 mph97%30.14 "Hg3 mi
8:00 AM42 °FDrizzle. Low clouds.6 mph97%30.11 "Hg4 mi
7:00 AM42 °FDrizzle. Low clouds.6 mph99%30.08 "Hg2 mi
6:00 AM43 °FLow clouds.7 mph100%30.05 "Hg2 mi
5:00 AM43 °FLow clouds.8 mph99%30.03 "Hg4 mi
4:00 AM44 °FDrizzle. Low clouds.9 mph98%30.01 "Hg5 mi
3:00 AM44 °FLight freezing rain. Low clouds.8 mph98%29.99 "Hg3 mi
2:00 AM44 °FLight freezing rain. Low clouds.8 mph99%29.96 "Hg3 mi
1:00 AM44 °FLight rain. Low clouds.9 mph97%29.95 "Hg2 mi
12:00 AM44 °FFog.10 mph97%29.92 "Hg2 mi
Weather by CustomWeather, © 2014

See weather overviewHow to use our weather pages